Location: *
(38.9555°S, 57.3572°E)
Time: 00:39:54
(UTC+00:00)

Cosmos 1470 - Pass Details

Date: 15 July 2020
Orbit: 522 x 541 km, 82.5° (Epoch: 06 August)

Event Time Altitude Azimuth Distance (km) Brightness Sun altitude
Rises 13:33:51 0° 4° (N) 2,694 6.6 -5.4°
Reaches altitude 10° 13:36:01 10° 8° (N) 1,809 5.7 -5.8°
Maximum altitude 13:39:55 55° 86° (E) 660 2.9 -6.5°
Drops below altitude 10° 13:43:51 10° 164° (SSE) 1,829 5.1 -7.2°
Sets 13:46:03 0° 167° (SSE) 2,727 6.0 -7.6°
